Radiation Dose at Monitoring Post of Fukushima Daini Nuclear Power Station
Date,Time,MP-1(microSv/h),MP-2(microSv/h),MP-3(microSv/h),MP-4(microSv/h),MP-5(microSv/h),MP-6(microSv/h),MP-7(microSv/h),Wind Direction,Wind Velocity(m/s),Rain
2022/02/13,00:00,0.155,0.142,0.216,0.198,0.209,0.124,0.078,south,6.2,No
2022/02/13,00:10,0.155,0.142,0.216,0.198,0.208,0.123,0.079,south,6.1,No
2022/02/13,00:20,0.155,0.141,0.215,0.198,0.209,0.124,0.079,south,5.4,No
2022/02/13,00:30,0.155,0.141,0.215,0.199,0.209,0.123,0.078,south,5.8,No
2022/02/13,00:40,0.155,0.142,0.216,0.199,0.209,0.124,0.079,south,6.1,No
2022/02/13,00:50,0.155,0.142,0.216,0.198,0.208,0.124,0.079,south,5.7,No
2022/02/13,01:00,0.156,0.141,0.216,0.199,0.209,0.124,0.079,south,6.2,No
2022/02/13,01:10,0.155,0.141,0.217,0.198,0.209,0.124,0.079,south-southwest,5.9,No
2022/02/13,01:20,0.156,0.142,0.217,0.199,0.209,0.124,0.079,south-southwest,5.5,No
2022/02/13,01:30,0.156,0.141,0.216,0.199,0.209,0.124,0.080,south-southwest,5.5,No
2022/02/13,01:40,0.156,0.141,0.215,0.200,0.209,0.124,0.079,south-southwest,6.0,No
2022/02/13,01:50,0.156,0.142,0.216,0.200,0.209,0.124,0.079,south,5.4,No
2022/02/13,02:00,0.155,0.141,0.216,0.199,0.210,0.124,0.079,south,5.2,No
2022/02/13,02:10,0.156,0.142,0.215,0.200,0.209,0.124,0.079,south-southwest,4.9,No
2022/02/13,02:20,0.155,0.141,0.216,0.200,0.210,0.124,0.079,south-southwest,4.4,No
2022/02/13,02:30,0.155,0.141,0.216,0.198,0.210,0.123,0.079,south-southwest,3.8,No
2022/02/13,02:40,0.156,0.142,0.215,0.200,0.208,0.124,0.079,south-southwest,3.7,No
2022/02/13,02:50,0.155,0.141,0.216,0.199,0.209,0.123,0.079,south-southwest,3.7,No
2022/02/13,03:00,0.154,0.142,0.215,0.199,0.208,0.123,0.079,south-southwest,3.7,No
2022/02/13,03:10,0.154,0.141,0.216,0.198,0.209,0.124,0.079,south-southwest,3.2,No
2022/02/13,03:20,0.154,0.141,0.216,0.200,0.209,0.124,0.079,southwest,4.4,No
2022/02/13,03:30,0.156,0.141,0.215,0.199,0.208,0.124,0.078,southwest,4.7,No
2022/02/13,03:40,0.155,0.141,0.215,0.198,0.208,0.124,0.079,southwest,4.1,No
2022/02/13,03:50,0.154,0.141,0.216,0.199,0.208,0.123,0.079,southwest,3.3,No
2022/02/13,04:00,0.155,0.141,0.215,0.199,0.209,0.124,0.078,southwest,3.8,No
2022/02/13,04:10,0.156,0.141,0.216,0.200,0.208,0.123,0.079,west-southwest,4.0,No
2022/02/13,04:20,0.156,0.141,0.216,0.199,0.209,0.124,0.079,southwest,3.5,No
2022/02/13,04:30,0.155,0.140,0.216,0.200,0.209,0.124,0.079,west-southwest,4.9,No
2022/02/13,04:40,0.155,0.140,0.216,0.199,0.209,0.124,0.079,west-southwest,4.3,No
2022/02/13,04:50,0.155,0.142,0.214,0.199,0.208,0.124,0.079,west-southwest,3.8,No
2022/02/13,05:00,0.156,0.142,0.216,0.199,0.208,0.124,0.079,west-southwest,4.3,No
2022/02/13,05:10,0.155,0.141,0.216,0.200,0.209,0.123,0.080,west-southwest,4.4,No
2022/02/13,05:20,0.155,0.141,0.215,0.199,0.209,0.124,0.079,west-southwest,3.3,No
2022/02/13,05:30,0.157,0.141,0.215,0.199,0.209,0.125,0.079,west-southwest,2.9,No
2022/02/13,05:40,0.155,0.142,0.217,0.199,0.209,0.123,0.080,west,2.2,No
2022/02/13,05:50,0.155,0.142,0.217,0.200,0.208,0.125,0.079,northwest,1.4,No
2022/02/13,06:00,0.156,0.141,0.217,0.198,0.208,0.124,0.079,-,CALM,No
2022/02/13,06:10,0.156,0.142,0.216,0.200,0.208,0.125,0.078,west-northwest,1.1,No
2022/02/13,06:20,0.156,0.141,0.216,0.199,0.208,0.124,0.078,north-northwest,1.0,No
2022/02/13,06:30,0.155,0.141,0.217,0.199,0.208,0.124,0.079,northwest,1.1,No
2022/02/13,06:40,0.154,0.141,0.215,0.199,0.209,0.124,0.078,west-northwest,0.7,No
2022/02/13,06:50,0.156,0.140,0.216,0.199,0.208,0.124,0.078,west,0.5,No
2022/02/13,07:00,0.155,0.142,0.217,0.199,0.209,0.124,0.079,west-northwest,1.1,No
2022/02/13,07:10,0.156,0.141,0.216,0.199,0.207,0.124,0.079,northwest,2.4,No
2022/02/13,07:20,0.156,0.141,0.216,0.198,0.208,0.124,0.080,northwest,2.4,No
2022/02/13,07:30,0.156,0.141,0.216,0.200,0.210,0.124,0.080,north-northwest,3.0,No
2022/02/13,07:40,0.155,0.141,0.216,0.199,0.209,0.124,0.079,northwest,4.0,No
2022/02/13,07:50,0.155,0.141,0.216,0.200,0.209,0.124,0.079,northwest,4.1,No
2022/02/13,08:00,0.155,0.142,0.216,0.200,0.209,0.125,0.079,northwest,3.0,No
2022/02/13,08:10,0.156,0.141,0.216,0.200,0.210,0.125,0.079,west-northwest,1.6,No
2022/02/13,08:20,0.156,0.142,0.217,0.200,0.209,0.124,0.080,west-northwest,0.7,No
2022/02/13,08:30,0.156,0.141,0.217,0.200,0.210,0.125,0.080,north-northwest,2.1,No
2022/02/13,08:40,0.156,0.142,0.216,0.200,0.210,0.124,0.079,north,2.5,No
2022/02/13,08:50,0.156,0.142,0.217,0.199,0.210,0.125,0.079,north,1.4,No
2022/02/13,09:00,0.156,0.141,0.216,0.200,0.210,0.125,0.080,-,CALM,No
2022/02/13,09:10,0.155,0.142,0.216,0.199,0.209,0.124,0.080,north,1.8,No
2022/02/13,09:20,0.155,0.142,0.217,0.200,0.210,0.124,0.079,east-northeast,1.3,No
2022/02/13,09:30,0.155,0.141,0.218,0.200,0.209,0.124,0.079,northeast,2.2,No
2022/02/13,09:40,0.154,0.142,0.216,0.199,0.210,0.124,0.079,north-northeast,1.6,No
2022/02/13,09:50,0.156,0.141,0.216,0.199,0.211,0.124,0.079,northeast,1.6,No
2022/02/13,10:00,0.155,0.140,0.216,0.200,0.210,0.124,0.079,east-northeast,1.0,No
2022/02/13,10:10,0.155,0.141,0.216,0.200,0.210,0.125,0.080,north-northeast,1.3,No
2022/02/13,10:20,0.155,0.141,0.217,0.201,0.211,0.124,0.079,northeast,2.2,No
2022/02/13,10:30,0.155,0.140,0.216,0.200,0.210,0.124,0.079,northeast,2.7,No
2022/02/13,10:40,0.156,0.141,0.217,0.199,0.211,0.125,0.079,northeast,2.2,No
2022/02/13,10:50,0.155,0.142,0.217,0.201,0.210,0.124,0.079,northeast,2.1,No
2022/02/13,11:00,0.155,0.141,0.216,0.200,0.211,0.124,0.079,northeast,3.0,No
2022/02/13,11:10,0.155,0.140,0.216,0.201,0.211,0.124,0.079,north-northeast,2.4,No
2022/02/13,11:20,0.155,0.141,0.216,0.201,0.211,0.124,0.079,northeast,2.7,No
2022/02/13,11:30,0.156,0.142,0.217,0.201,0.212,0.124,0.079,northeast,2.5,No
2022/02/13,11:40,0.155,0.142,0.217,0.201,0.211,0.123,0.079,northeast,2.1,No
2022/02/13,11:50,0.155,0.141,0.219,0.201,0.213,0.125,0.079,northeast,2.5,No
2022/02/13,12:00,0.156,0.141,0.219,0.202,0.213,0.124,0.078,northeast,3.0,No
2022/02/13,12:10,0.156,0.141,0.218,0.202,0.214,0.125,0.078,northeast,2.7,No
2022/02/13,12:20,0.156,0.141,0.218,0.203,0.213,0.124,0.080,northeast,3.3,No
2022/02/13,12:30,0.156,0.141,0.219,0.203,0.213,0.123,0.079,north-northeast,3.7,No
2022/02/13,12:40,0.155,0.141,0.219,0.203,0.215,0.123,0.079,north-northeast,4.8,No
2022/02/13,12:50,0.155,0.140,0.218,0.203,0.214,0.124,0.079,north,5.0,No
2022/02/13,13:00,0.155,0.141,0.219,0.203,0.214,0.124,0.078,north-northeast,5.1,No
2022/02/13,13:10,0.155,0.141,0.218,0.204,0.215,0.125,0.079,north-northeast,4.8,No
2022/02/13,13:20,0.156,0.141,0.218,0.204,0.214,0.124,0.079,north-northeast,4.1,No
2022/02/13,13:30,0.156,0.141,0.219,0.205,0.216,0.124,0.080,north-northeast,4.7,No
2022/02/13,13:40,0.155,0.142,0.219,0.204,0.215,0.125,0.078,north-northeast,4.8,No
2022/02/13,13:50,0.155,0.141,0.219,0.205,0.215,0.124,0.079,north,3.8,No
2022/02/13,14:00,0.155,0.142,0.220,0.206,0.217,0.124,0.078,north-northeast,3.3,No
2022/02/13,14:10,0.155,0.141,0.220,0.205,0.216,0.125,0.079,north,4.0,No
2022/02/13,14:20,0.156,0.141,0.220,0.205,0.218,0.124,0.078,north,4.4,No
2022/02/13,14:30,0.155,0.142,0.220,0.206,0.216,0.124,0.079,north,4.6,No
2022/02/13,14:40,0.156,0.141,0.220,0.206,0.215,0.124,0.079,north,5.2,No
2022/02/13,14:50,0.156,0.141,0.219,0.207,0.217,0.124,0.079,north,4.6,No
2022/02/13,15:00,0.156,0.142,0.221,0.207,0.218,0.124,0.079,north,3.8,No
2022/02/13,15:10,0.156,0.141,0.220,0.207,0.217,0.125,0.078,north,2.9,No
2022/02/13,15:20,0.155,0.142,0.220,0.206,0.216,0.123,0.080,north,3.2,No
2022/02/13,15:30,0.155,0.142,0.220,0.208,0.217,0.125,0.079,north,3.0,No
2022/02/13,15:40,0.156,0.142,0.220,0.208,0.217,0.124,0.078,north-northeast,2.4,No
2022/02/13,15:50,0.156,0.142,0.220,0.207,0.217,0.124,0.078,north-northeast,1.9,No
2022/02/13,16:00,0.154,0.142,0.220,0.208,0.217,0.124,0.079,northeast,1.9,No
2022/02/13,16:10,0.156,0.141,0.221,0.208,0.217,0.124,0.079,northeast,1.4,Yes
2022/02/13,16:20,0.156,0.141,0.220,0.208,0.217,0.124,0.079,northeast,1.6,Yes
2022/02/13,16:30,0.156,0.142,0.221,0.208,0.218,0.125,0.080,north-northeast,1.0,Yes
2022/02/13,16:40,0.157,0.144,0.223,0.209,0.219,0.126,0.080,northeast,2.4,Yes
2022/02/13,16:50,0.157,0.143,0.224,0.210,0.219,0.127,0.081,east,1.6,Yes
2022/02/13,17:00,0.159,0.145,0.224,0.211,0.221,0.128,0.082,northeast,0.5,Yes
2022/02/13,17:10,0.159,0.146,0.224,0.210,0.220,0.128,0.083,-,CALM,Yes
2022/02/13,17:20,0.160,0.145,0.224,0.211,0.222,0.130,0.083,southeast,0.5,Yes
2022/02/13,17:30,0.160,0.146,0.224,0.212,0.222,0.130,0.084,south-southwest,1.1,Yes
2022/02/13,17:40,0.160,0.146,0.224,0.212,0.221,0.129,0.084,west,1.0,Yes
2022/02/13,17:50,0.160,0.146,0.224,0.212,0.222,0.129,0.083,west-northwest,1.3,Yes
2022/02/13,18:00,0.159,0.146,0.224,0.213,0.222,0.129,0.084,west-northwest,1.4,Yes
2022/02/13,18:10,0.160,0.146,0.226,0.213,0.221,0.129,0.085,northwest,2.5,Yes
2022/02/13,18:20,0.160,0.146,0.226,0.211,0.221,0.129,0.084,northwest,3.2,Yes
2022/02/13,18:30,0.160,0.146,0.225,0.212,0.223,0.130,0.084,northwest,3.3,Yes
2022/02/13,18:40,0.159,0.146,0.224,0.213,0.221,0.128,0.084,north-northwest,2.7,Yes
2022/02/13,18:50,0.159,0.144,0.225,0.212,0.222,0.130,0.083,northwest,3.0,Yes
2022/02/13,19:00,0.160,0.145,0.224,0.212,0.221,0.128,0.084,northwest,3.3,Yes
2022/02/13,19:10,0.159,0.145,0.224,0.212,0.221,0.129,0.084,north-northwest,3.0,Yes
2022/02/13,19:20,0.158,0.145,0.223,0.213,0.220,0.128,0.083,northwest,2.2,Yes
2022/02/13,19:30,0.159,0.143,0.224,0.211,0.220,0.127,0.083,northwest,1.9,Yes
2022/02/13,19:40,0.158,0.144,0.223,0.210,0.219,0.127,0.083,northwest,2.1,Yes
2022/02/13,19:50,0.157,0.144,0.222,0.211,0.221,0.126,0.081,northwest,2.2,Yes
2022/02/13,20:00,0.156,0.143,0.222,0.211,0.219,0.127,0.081,north-northwest,1.9,Yes
2022/02/13,20:10,0.156,0.143,0.222,0.210,0.219,0.126,0.082,northwest,2.1,Yes
2022/02/13,20:20,0.157,0.143,0.220,0.211,0.219,0.126,0.081,northwest,2.1,Yes
2022/02/13,20:30,0.157,0.143,0.221,0.210,0.219,0.125,0.080,northwest,0.8,Yes
2022/02/13,20:40,0.156,0.142,0.221,0.208,0.219,0.124,0.080,west-northwest,0.5,Yes
2022/02/13,20:50,0.156,0.142,0.220,0.209,0.218,0.125,0.080,west-southwest,1.0,Yes
2022/02/13,21:00,0.155,0.141,0.220,0.209,0.218,0.125,0.080,-,CALM,Yes
2022/02/13,21:10,0.155,0.142,0.221,0.210,0.218,0.125,0.079,south,1.1,Yes
2022/02/13,21:20,0.157,0.142,0.220,0.210,0.218,0.124,0.080,southwest,1.1,No
2022/02/13,21:30,0.156,0.141,0.221,0.209,0.218,0.124,0.079,west,1.3,No
2022/02/13,21:40,0.156,0.141,0.221,0.209,0.218,0.124,0.080,west,1.0,Yes
2022/02/13,21:50,0.155,0.141,0.221,0.210,0.219,0.124,0.079,west,1.0,No
2022/02/13,22:00,0.155,0.141,0.221,0.209,0.218,0.124,0.079,west,1.0,Yes
2022/02/13,22:10,0.155,0.141,0.220,0.209,0.218,0.124,0.079,-,CALM,Yes
2022/02/13,22:20,0.156,0.143,0.221,0.209,0.219,0.124,0.080,northwest,1.9,Yes
2022/02/13,22:30,0.157,0.142,0.222,0.211,0.219,0.125,0.081,northwest,1.6,Yes
2022/02/13,22:40,0.157,0.143,0.223,0.211,0.220,0.125,0.082,northwest,1.6,Yes
2022/02/13,22:50,0.157,0.144,0.222,0.212,0.220,0.126,0.081,northwest,2.1,Yes
2022/02/13,23:00,0.159,0.145,0.224,0.211,0.221,0.127,0.083,north-northwest,1.4,Yes
2022/02/13,23:10,0.159,0.144,0.224,0.213,0.221,0.127,0.083,northwest,3.0,Yes
2022/02/13,23:20,0.158,0.144,0.224,0.213,0.221,0.128,0.083,northwest,4.8,Yes
2022/02/13,23:30,0.159,0.146,0.225,0.213,0.221,0.127,0.083,northwest,4.4,Yes
2022/02/13,23:40,0.158,0.145,0.224,0.212,0.222,0.127,0.083,northwest,4.1,Yes
2022/02/13,23:50,0.160,0.145,0.224,0.214,0.221,0.127,0.082,northwest,4.3,Yes
